When you browse on this site, cookies collect data to enhance your experience and personalize the content and advertising you see.
Visit our Privacy Policy to learn more. By continuing to use the site, you agree to this use of cookies and data.
  • In Österreich
  • Länderverzeichnis
  • Für 7 Tage
  • Wassertemperatur
  • Satellitenkarten
  • Wetterkarte
  • News
  • Widgets
  • user-avatar
    Anmelden

    Stündliche Wetter Corona

    Heute, 26 Juni, Mittwoch

    Zeit Temperatur Niederschläge Wind Luftdruck Luftfeuchtigkeit
    00:00 +19°C° 0 mm 1 m/S 740 mmHg 82%
    01:00 +19°C° 0 mm 1 m/S 740 mmHg 83%
    02:00 +19°C° 0 mm 1 m/S 740 mmHg 83%
    03:00 +19°C° 0 mm 1 m/S 740 mmHg 84%
    04:00 +18°C° 0 mm 1 m/S 740 mmHg 84%
    05:00 +19°C° 0 mm 1 m/S 740 mmHg 81%
    06:00 +18°C° 0 mm 0 m/S 740 mmHg 77%
    07:00 +18°C° 0 mm 0 m/S 741 mmHg 74%
    08:00 +22°C° 0 mm 1 m/S 741 mmHg 67%
    09:00 +24°C° 0 mm 1 m/S 741 mmHg 59%
    10:00 +26°C° 0 mm 2 m/S 741 mmHg 51%
    11:00 +27°C° 0 mm 3 m/S 741 mmHg 48%
    12:00 +28°C° 0 mm 3 m/S 741 mmHg 45%
    13:00 +29°C° 0 mm 4 m/S 741 mmHg 42%
    14:00 +29°C° 0 mm 4 m/S 741 mmHg 41%
    15:00 +28°C° 0 mm 4 m/S 741 mmHg 41%
    16:00 +28°C° 0 mm 4 m/S 740 mmHg 40%
    17:00 +26°C° 0 mm 3 m/S 741 mmHg 46%
    18:00 +24°C° 0 mm 3 m/S 741 mmHg 51%
    19:00 +23°C° 0 mm 2 m/S 741 mmHg 57%
    20:00 +21°C° 0 mm 2 m/S 741 mmHg 62%
    21:00 +21°C° 0 mm 1 m/S 741 mmHg 67%
    22:00 +20°C° 0 mm 1 m/S 742 mmHg 72%
    23:00 +20°C° 0 mm 1 m/S 742 mmHg 74%

    Morgen, 27 Juni, Donnerstag

    Zeit Temperatur Niederschläge Wind Luftdruck Luftfeuchtigkeit
    00:00 +19°C° 0 mm 1 m/S 741 mmHg 76%
    01:00 +17°C° 0 mm 0 m/S 741 mmHg 77%
    02:00 +16°C° 0 mm 0 m/S 741 mmHg 78%
    03:00 +16°C° 0 mm 0 m/S 741 mmHg 78%
    04:00 +16°C° 0 mm 0 m/S 741 mmHg 78%
    05:00 +17°C° 0 mm 0 m/S 741 mmHg 73%
    06:00 +19°C° 0 mm 0 m/S 742 mmHg 67%
    07:00 +20°C° 0 mm 0 m/S 742 mmHg 62%
    08:00 +24°C° 0 mm 1 m/S 742 mmHg 53%
    09:00 +26°C° 0 mm 1 m/S 742 mmHg 45%
    10:00 +28°C° 0 mm 1 m/S 742 mmHg 37%
    11:00 +29°C° 0 mm 2 m/S 742 mmHg 33%
    12:00 +31°C° 0 mm 3 m/S 742 mmHg 30%
    13:00 +33°C° 0 mm 4 m/S 742 mmHg 26%
    14:00 +33°C° 0 mm 4 m/S 741 mmHg 27%
    15:00 +32°C° 0 mm 4 m/S 741 mmHg 27%
    16:00 +32°C° 0 mm 4 m/S 741 mmHg 28%
    17:00 +29°C° 0 mm 3 m/S 741 mmHg 33%
    18:00 +27°C° 0 mm 3 m/S 741 mmHg 38%
    19:00 +25°C° 0 mm 2 m/S 741 mmHg 43%
    20:00 +24°C° 0 mm 2 m/S 741 mmHg 48%
    21:00 +23°C° 0 mm 1 m/S 741 mmHg 53%
    22:00 +22°C° 0 mm 1 m/S 741 mmHg 58%
    23:00 +22°C° 0 mm 1 m/S 741 mmHg 60%

    übermorgen, 28 Juni, Freitag

    Zeit Temperatur Niederschläge Wind Luftdruck Luftfeuchtigkeit
    00:00 +21°C° 0 mm 1 m/S 741 mmHg 61%
    01:00 +21°C° 0 mm 1 m/S 741 mmHg 63%
    02:00 +20°C° 0 mm 1 m/S 741 mmHg 65%
    03:00 +20°C° 0 mm 1 m/S 741 mmHg 66%
    04:00 +17°C° 0 mm 0 m/S 741 mmHg 67%
    05:00 +19°C° 0 mm 0 m/S 741 mmHg 61%
    06:00 +20°C° 0 mm 0 m/S 741 mmHg 54%
    07:00 +22°C° 0 mm 0 m/S 741 mmHg 48%
    08:00 +26°C° 0 mm 1 m/S 742 mmHg 41%
    09:00 +28°C° 0 mm 1 m/S 742 mmHg 34%
    10:00 +30°C° 0 mm 1 m/S 742 mmHg 27%
    11:00 +31°C° 0 mm 2 m/S 742 mmHg 25%
    12:00 +33°C° 0 mm 3 m/S 741 mmHg 22%
    13:00 +34°C° 0 mm 3 m/S 741 mmHg 19%
    14:00 +34°C° 0 mm 4 m/S 741 mmHg 19%
    15:00 +34°C° 0 mm 4 m/S 740 mmHg 19%
    16:00 +33°C° 0 mm 4 m/S 740 mmHg 19%
    17:00 +30°C° 0 mm 3 m/S 740 mmHg 23%
    18:00 +28°C° 0 mm 3 m/S 741 mmHg 27%
    19:00 +26°C° 0 mm 2 m/S 741 mmHg 31%
    20:00 +25°C° 0 mm 2 m/S 741 mmHg 34%
    21:00 +24°C° 0 mm 1 m/S 742 mmHg 38%
    22:00 +22°C° 0 mm 1 m/S 742 mmHg 42%
    23:00 +22°C° 0 mm 1 m/S 742 mmHg 43%

    29 Juni, Samstag

    Zeit Temperatur Niederschläge Wind Luftdruck Luftfeuchtigkeit
    00:00 +22°C° 0 mm 1 m/S 742 mmHg 44%
    01:00 +22°C° 0 mm 1 m/S 742 mmHg 44%
    02:00 +19°C° 0 mm 0 m/S 742 mmHg 45%
    03:00 +19°C° 0 mm 0 m/S 741 mmHg 45%
    04:00 +19°C° 0 mm 0 m/S 741 mmHg 45%
    05:00 +21°C° 0 mm 0 m/S 742 mmHg 40%
    06:00 +22°C° 0 mm 0 m/S 742 mmHg 36%
    07:00 +23°C° 0 mm 0 m/S 742 mmHg 31%
    08:00 +25°C° 0 mm 0 m/S 742 mmHg 28%
    09:00 +28°C° 0 mm 1 m/S 742 mmHg 24%
    10:00 +30°C° 0 mm 1 m/S 742 mmHg 20%
    11:00 +30°C° 0 mm 1 m/S 742 mmHg 20%
    12:00 +30°C° 0 mm 1 m/S 742 mmHg 19%
    13:00 +30°C° 0 mm 1 m/S 742 mmHg 19%
    14:00 +31°C° 0 mm 2 m/S 741 mmHg 17%
    15:00 +32°C° 0 mm 2 m/S 741 mmHg 16%
    16:00 +34°C° 0 mm 2 m/S 741 mmHg 15%
    17:00 +31°C° 0 mm 2 m/S 741 mmHg 19%
    18:00 +29°C° 0 mm 2 m/S 741 mmHg 24%
    19:00 +27°C° 0 mm 2 m/S 741 mmHg 29%
    20:00 +26°C° 0 mm 2 m/S 741 mmHg 32%
    21:00 +25°C° 0 mm 1 m/S 741 mmHg 36%
    22:00 +24°C° 0 mm 1 m/S 742 mmHg 39%
    23:00 +23°C° 0 mm 1 m/S 742 mmHg 40%

    30 Juni, Sonntag

    Zeit Temperatur Niederschläge Wind Luftdruck Luftfeuchtigkeit
    00:00 +21°C° 0 mm 0 m/S 741 mmHg 41%
    01:00 +20°C° 0 mm 0 m/S 741 mmHg 43%
    02:00 +20°C° 0 mm 0 m/S 741 mmHg 44%
    03:00 +20°C° 0 mm 0 m/S 741 mmHg 44%
    04:00 +19°C° 0 mm 0 m/S 741 mmHg 45%
    05:00 +21°C° 0 mm 0 m/S 741 mmHg 41%
    06:00 +23°C° 0 mm 0 m/S 741 mmHg 37%
    07:00 +24°C° 0 mm 0 m/S 742 mmHg 32%
    08:00 +28°C° 0 mm 1 m/S 742 mmHg 28%
    09:00 +30°C° 0 mm 1 m/S 742 mmHg 23%
    10:00 +32°C° 0 mm 2 m/S 742 mmHg 18%
    11:00 +34°C° 0 mm 2 m/S 742 mmHg 17%
    12:00 +35°C° 0 mm 3 m/S 741 mmHg 15%
    13:00 +36°C° 0 mm 4 m/S 741 mmHg 14%
    14:00 +35°C° 0 mm 4 m/S 741 mmHg 14%
    15:00 +35°C° 0 mm 4 m/S 740 mmHg 15%
    16:00 +35°C° 0 mm 4 m/S 740 mmHg 15%
    17:00 +33°C° 0 mm 3 m/S 740 mmHg 19%
    18:00 +30°C° 0 mm 3 m/S 740 mmHg 23%
    19:00 +28°C° 0 mm 2 m/S 740 mmHg 28%
    20:00 +27°C° 0 mm 1 m/S 740 mmHg 31%
    21:00 +25°C° 0 mm 1 m/S 741 mmHg 35%
    22:00 +24°C° 0 mm 1 m/S 741 mmHg 39%
    23:00 +24°C° 0 mm 1 m/S 741 mmHg 40%

    1 Juli, Montag

    Zeit Temperatur Niederschläge Wind Luftdruck Luftfeuchtigkeit
    00:00 +23°C° 0 mm 1 m/S 741 mmHg 42%
    01:00 +23°C° 0 mm 1 m/S 740 mmHg 44%
    02:00 +20°C° 0 mm 0 m/S 740 mmHg 45%
    03:00 +20°C° 0 mm 0 m/S 740 mmHg 47%
    04:00 +20°C° 0 mm 0 m/S 740 mmHg 48%
    05:00 +21°C° 0 mm 0 m/S 740 mmHg 43%
    06:00 +23°C° 0 mm 0 m/S 741 mmHg 39%
    07:00 +25°C° 0 mm 0 m/S 741 mmHg 34%
    08:00 +28°C° 0 mm 1 m/S 741 mmHg 30%
    09:00 +30°C° 0 mm 1 m/S 741 mmHg 27%
    10:00 +32°C° 0 mm 2 m/S 741 mmHg 23%
    11:00 +34°C° 0 mm 2 m/S 741 mmHg 22%
    12:00 +35°C° 0 mm 3 m/S 741 mmHg 21%
    13:00 +36°C° 0 mm 4 m/S 740 mmHg 20%
    14:00 +35°C° 0 mm 4 m/S 740 mmHg 20%
    15:00 +35°C° 0 mm 4 m/S 740 mmHg 21%
    16:00 +34°C° 0 mm 4 m/S 739 mmHg 21%
    17:00 +31°C° 0 mm 3 m/S 739 mmHg 26%
    18:00 +29°C° 0 mm 3 m/S 739 mmHg 30%
    19:00 +27°C° 0 mm 2 m/S 739 mmHg 35%
    20:00 +26°C° 0 mm 2 m/S 739 mmHg 39%
    21:00 +25°C° 0 mm 1 m/S 740 mmHg 44%
    22:00 +24°C° 0 mm 1 m/S 740 mmHg 48%
    23:00 +23°C° 0 mm 1 m/S 740 mmHg 51%
    Mehr zeigen